Madison, MN

4:00 AM CDT on May 28, 2018 (GMT -0500)
Madison-Lac Qui Parle County

Weather History for KDXX - January, 2014

Change the Weather History Date:

Saturday, January 25, 2014

  Actual Average (KAQP) Record (KAQP)
Temperature  
Mean Temperature 15 °F -  
Max Temperature 24 °F 18 °F 39 °F (2002)
Min Temperature 6 °F 2 °F -18 °F (1997)
Degree Days  
Heating Degree Days 50    
Moisture  
Dew Point 6 °F    
Average Humidity 69    
Maximum Humidity 93    
Minimum Humidity 53    
Precipitation  
Precipitation 0.01 in - - ()
Sea Level Pressure  
Sea Level Pressure 29.82 in    
Wind  
Wind Speed 17 mph (NNW)    
Max Wind Speed 30 mph    
Max Gust Speed 37 mph    
Visibility 8 miles    
Events Snow    
Averages and records for this station are not official NWS values.
T = Trace of Precipitation, MM = Missing Value Source: NWS Daily Summary

Daily Weather History Graph

Daily Weather History Graph

Search for Another Location

Airport or City:

Astronomy

Jan. 25, 2014 Rise Set
Actual Time 7:51 AM CST 5:22 PM CST
Civil Twilight 7:19 AM CST 5:54 PM CST
Nautical Twilight 6:44 AM CST 6:30 PM CST
Astronomical Twilight 6:09 AM CST 7:05 PM CST
Moon 2:23 AM CST (1/25) 12:24 PM CST (1/25)
Length of Visible Light 10h 34m
Length of Day
9h 31m
Waning Crescent, 34% of the Moon is Illuminated
Jan 25
Waning Crescent
Jan 30
New
Feb 6
First Quarter
Feb 14
Full
Feb 22
Last Quarter

Hourly Weather History & Observations

Time (CST) Temp. Windchill Dew Point Humidity Pressure Visibility Wind Dir Wind Speed Gust Speed Precip Events Conditions
12:14 AM 24.8 °F 7.9 °F 12.2 °F 59% 29.79 in 10.0 mi North 29.9 mph 36.8 mph N/A   Overcast
12:34 AM 23.0 °F 5.4 °F 12.2 °F 63% 29.80 in 10.0 mi NNW 29.9 mph 34.5 mph N/A   Overcast
12:53 AM 23.0 °F 6.0 °F 14.0 °F 68% 29.81 in 10.0 mi NNW 27.6 mph 33.4 mph N/A   Overcast
1:14 AM 21.2 °F 4.5 °F 14.0 °F 74% 29.82 in 10.0 mi North 24.2 mph - N/A   Mostly Cloudy
1:34 AM 19.4 °F 3.2 °F 12.2 °F 74% 29.83 in 10.0 mi North 20.7 mph 29.9 mph N/A   Overcast
1:54 AM 19.4 °F 3.2 °F 10.4 °F 68% 29.84 in 10.0 mi North 20.7 mph - N/A   Overcast
2:13 AM 17.6 °F 2.7 °F 10.4 °F 73% 29.86 in 10.0 mi North 16.1 mph 21.9 mph N/A   Scattered Clouds
2:34 AM 15.8 °F -0.2 °F 8.6 °F 73% 29.87 in 10.0 mi North 17.3 mph 20.7 mph N/A   Clear
2:54 AM 15.8 °F -1.1 °F 1.4 °F 53% 29.89 in 10.0 mi North 19.6 mph 25.3 mph N/A   Clear
3:14 AM 14.0 °F -2.5 °F 3.2 °F 62% 29.89 in 10.0 mi NNW 17.3 mph 21.9 mph N/A   Clear
3:34 AM 12.2 °F -4.8 °F -0.4 °F 57% 29.90 in 10.0 mi NNW 17.3 mph 26.5 mph N/A   Clear
3:53 AM 12.2 °F -3.1 °F -2.2 °F 53% 29.90 in 10.0 mi NNW 13.8 mph - N/A   Clear
4:14 AM 12.2 °F -4.8 °F -2.2 °F 53% 29.91 in 10.0 mi NNW 17.3 mph - N/A   Clear
4:34 AM 12.2 °F -3.7 °F -0.4 °F 57% 29.93 in 10.0 mi NNW 15.0 mph - N/A   Clear
4:53 AM 12.2 °F -2.5 °F 1.4 °F 62% 29.93 in 10.0 mi NNW 12.7 mph 18.4 mph N/A   Clear
5:14 AM 10.4 °F -3.3 °F 1.4 °F 67% 29.93 in 10.0 mi NNW 10.4 mph - N/A   Clear
5:34 AM 10.4 °F -4.1 °F -0.4 °F 62% 29.94 in 10.0 mi NNW 11.5 mph - N/A   Clear
5:53 AM 10.4 °F -4.8 °F -0.4 °F 62% 29.95 in 10.0 mi NNW 12.7 mph - N/A   Clear
6:14 AM 10.4 °F -8.2 °F -0.4 °F 62% 29.97 in 10.0 mi NNW 19.6 mph - N/A   Clear
6:34 AM 8.6 °F -7.7 °F -0.4 °F 67% 29.99 in 10.0 mi North 13.8 mph - N/A   Clear
6:53 AM 8.6 °F -8.9 °F -0.4 °F 67% 29.99 in 10.0 mi North 16.1 mph 20.7 mph N/A   Clear
7:14 AM 6.8 °F -9.3 °F -2.2 °F 67% 30.00 in 10.0 mi NNW 12.7 mph - N/A   Clear
7:34 AM 6.8 °F -9.3 °F -2.2 °F 67% 30.01 in 10.0 mi NNW 12.7 mph - N/A   Clear
7:53 AM 6.8 °F -7.8 °F -2.2 °F 67% 30.03 in 10.0 mi NNW 10.4 mph - N/A   Clear
8:14 AM 6.8 °F -8.6 °F -2.2 °F 67% 30.03 in 10.0 mi NNW 11.5 mph - N/A   Clear
8:33 AM 6.8 °F -8.6 °F -2.2 °F 67% 30.03 in 10.0 mi NNW 11.5 mph 16.1 mph N/A   Clear
8:54 AM 8.6 °F -6.3 °F -2.2 °F 62% 30.03 in 10.0 mi NNW 11.5 mph - N/A   Clear
9:14 AM 8.6 °F -7.0 °F -2.2 °F 62% 30.03 in 10.0 mi NNW 12.7 mph - N/A   Clear
9:33 AM 8.6 °F -11.0 °F -0.4 °F 67% 30.02 in 10.0 mi NNW 20.7 mph 24.2 mph N/A   Clear
9:54 AM 8.6 °F -10.0 °F -0.4 °F 67% 30.04 in 10.0 mi NNW 18.4 mph - N/A   Clear
10:14 AM 8.6 °F -7.0 °F -0.4 °F 67% 30.04 in 10.0 mi NNW 12.7 mph - N/A   Clear
10:33 AM 10.4 °F -5.4 °F -0.4 °F 62% 30.04 in 10.0 mi NNW 13.8 mph 19.6 mph N/A   Clear
10:54 AM 10.4 °F -7.2 °F -0.4 °F 62% 30.03 in 10.0 mi NNW 17.3 mph - N/A   Clear
11:14 AM 10.4 °F -4.1 °F 1.4 °F 67% 30.03 in 10.0 mi NW 11.5 mph - N/A   Clear
11:33 AM 12.2 °F -3.7 °F -0.4 °F 57% 30.03 in 10.0 mi NW 15.0 mph - N/A   Clear
11:54 AM 12.2 °F -2.5 °F -2.2 °F 53% 30.01 in 10.0 mi NNW 12.7 mph - N/A   Clear
12:14 PM 12.2 °F -3.7 °F -2.2 °F 53% 30.00 in 10.0 mi NW 15.0 mph - N/A   Clear
12:33 PM 12.2 °F -1.8 °F -2.2 °F 53% 29.98 in 10.0 mi NW 11.5 mph - N/A   Clear
12:54 PM 12.2 °F -1.0 °F -2.2 °F 53% 29.98 in 10.0 mi NW 10.4 mph 16.1 mph N/A   Clear
1:14 PM 14.0 °F -0.8 °F -0.4 °F 53% 29.97 in 10.0 mi NW 13.8 mph - N/A   Clear
1:33 PM 14.0 °F 1.2 °F 1.4 °F 57% 29.95 in 10.0 mi NW 10.4 mph 16.1 mph N/A   Clear
1:54 PM 15.8 °F 5.1 °F 1.4 °F 53% 29.94 in 10.0 mi NW 8.1 mph - N/A   Clear
2:14 PM 15.8 °F 5.1 °F 1.4 °F 53% 29.92 in 10.0 mi NW 8.1 mph - N/A   Clear
2:33 PM 15.8 °F 8.6 °F 1.4 °F 53% 29.89 in 10.0 mi NW 4.6 mph - N/A   Clear
2:54 PM 15.8 °F 10.2 °F 1.4 °F 53% 29.88 in 10.0 mi North 3.5 mph - N/A   Clear
3:14 PM 15.8 °F - 3.2 °F 58% 29.88 in 10.0 mi Calm Calm - N/A   Clear
3:33 PM 15.8 °F - 3.2 °F 58% 29.88 in 10.0 mi Calm Calm - N/A   Clear
3:54 PM 15.8 °F - 5.0 °F 62% 29.87 in 10.0 mi Calm Calm - N/A   Scattered Clouds
4:13 PM 15.8 °F - 5.0 °F 62% 29.85 in 10.0 mi Calm Calm - N/A   Clear
4:34 PM 17.6 °F 8.2 °F 6.8 °F 63% 29.82 in 10.0 mi WSW 6.9 mph - N/A   Clear
4:54 PM 17.6 °F 12.3 °F 8.6 °F 68% 29.80 in 10.0 mi SSW 3.5 mph - N/A   Clear
5:13 PM 17.6 °F 9.3 °F 10.4 °F 73% 29.79 in 10.0 mi South 5.8 mph - N/A   Scattered Clouds
5:34 PM 19.4 °F 9.5 °F 10.4 °F 68% 29.74 in 10.0 mi South 8.1 mph - N/A   Clear
5:54 PM 19.4 °F 9.5 °F 10.4 °F 68% 29.72 in 10.0 mi SSE 8.1 mph - N/A Snow Light Snow
6:13 PM 17.6 °F 6.4 °F 12.2 °F 79% 29.70 in 2.0 mi SSE 9.2 mph - N/A Snow Light Snow
6:34 PM 17.6 °F 4.3 °F 14.0 °F 86% 29.66 in 1.8 mi SE 12.7 mph - N/A Snow Light Snow
6:54 PM 17.6 °F 4.3 °F 15.8 °F 93% 29.64 in 4.0 mi SSE 12.7 mph - N/A Snow Light Snow
7:13 PM 17.6 °F 3.7 °F 15.8 °F 93% 29.62 in 1.2 mi SE 13.8 mph - N/A Snow Light Snow
7:34 PM 19.4 °F 5.5 °F 15.8 °F 86% 29.60 in 1.0 mi SE 15.0 mph - N/A Snow Snow
7:54 PM 17.6 °F 3.2 °F 15.8 °F 93% 29.57 in 1.0 mi SE 15.0 mph - N/A Snow Snow
8:13 PM 17.6 °F 3.2 °F 15.8 °F 93% 29.53 in 0.8 mi SE 15.0 mph - N/A Snow Snow
8:34 PM 17.6 °F 2.2 °F 15.8 °F 93% 29.50 in 1.5 mi ESE 17.3 mph - N/A Snow Light Snow
8:54 PM 19.4 °F 5.5 °F 15.8 °F 86% 29.49 in 1.5 mi SE 15.0 mph - N/A Snow Light Snow
9:13 PM 19.4 °F 6.0 °F 15.8 °F 86% 29.47 in 1.0 mi SE 13.8 mph - N/A Snow Snow
9:34 PM 19.4 °F 6.6 °F 15.8 °F 86% 29.45 in 2.0 mi SE 12.7 mph - N/A Snow Light Snow
9:53 PM 17.6 °F 5.0 °F 15.8 °F 93% 29.45 in 1.5 mi ESE 11.5 mph - N/A Snow Light Snow
10:14 PM 17.6 °F 4.3 °F 15.8 °F 93% 29.42 in 1.5 mi ESE 12.7 mph - N/A Snow Light Snow
10:34 PM 19.4 °F 6.6 °F 15.8 °F 86% 29.41 in 7.0 mi ESE 12.7 mph - 0.01 in Snow Light Snow
10:53 PM 19.4 °F 6.0 °F 17.6 °F 93% 29.40 in 10.0 mi ESE 13.8 mph - 0.01 in   Overcast
11:14 PM 19.4 °F 8.6 °F 17.6 °F 93% 29.39 in 10.0 mi ESE 9.2 mph - N/A   Overcast
11:34 PM 19.4 °F 10.4 °F 17.6 °F 93% 29.38 in 10.0 mi SSE 6.9 mph 10.4 mph N/A   Overcast
11:53 PM 19.4 °F 8.6 °F 17.6 °F 93% 29.37 in 10.0 mi ESE 9.2 mph - N/A   Overcast